sat.trackr.live / text

‹ back to catalog

STARLINK-35519

NORAD 65919 · 2025-225K

PAYLOAD ACTIVE UNKNOWN

§ Identity

Operator
Country
US
Launch date
2025-10-08
Launch site
AFWTR
Launch vehicle
Mass (kg)
RCS (m²)

Purposes: comms

External: N2YO · Heavens-Above · Gunter

§ Orbital elements

Epoch: 2026-05-25T01:03:59.224608Z

Period
94.11 min
Inclination
53.1581°
Eccentricity
0.0001197
Mean motion
15.30200897 rev/d
Perigee alt
474.4 km
Apogee alt
476.0 km
Semi-major
6,853.3 km
B*
4.3301e-4
RAAN
170.6424°
Arg perigee
81.5278°
Mean anomaly
278.5858°
Rev number
3,610

§ Raw data

STARLINK-355191 65919U 25225K   26145.04443547  .00012487  00000+0  43301-3 0  99902 65919  53.1581 170.6424 0001197  81.5278 278.5858 15.30200897 36106

JSON: /api/v1/satellites/65919 · /tle

For live sub-satellite position, see the globe view (requires WebGL).

§ Visibility from observer

Set your observer location to see the next 7 days of passes ≥ 10°. The values pass through the URL so the page stays shareable.

No JS? Fill the form by hand. The geolocation button needs JavaScript.